EW9828 Weather Reports


Display with metric or nautical units.
time (UTC)temp
F
wind
direction
speed
MPH
gust
MPH
rain 1hr
in
rain 24hr
in
rain mn
in
humidity
%
barometer
mb
20260508020058 51 13 0.0 0.0 0.00 0.00 0.00 94 1011.4
20260508014546 52 13 0.0 0.0 0.00 0.00 0.00 94 1011.3
20260508013044 52 13 0.0 0.0 0.00 0.00 0.00 93 1011.2
20260508011548 53 13 0.0 0.0 0.00 0.00 0.00 93 1011.1
20260508010056 53 13 0.0 0.0 0.00 0.00 0.00 93 1011.0
20260508004538 54 13 0.0 0.0 0.00 0.00 0.00 93 1011.1
20260508003036 54 13 0.0 0.0 0.00 0.00 0.00 93 1011.1
20260508001536 54 13 0.0 0.0 0.00 0.00 0.00 93 1010.7
20260508000043 54 13 0.0 0.0 0.00 0.00 0.00 93 1010.3
20260507234534 55 13 0.0 0.0 0.00 0.00 0.00 93 1010.3
20260507233039 55 13 0.0 0.0 0.00 0.00 0.00 93 1010.1
20260507231531 55 13 0.0 0.0 0.00 0.00 0.00 93 1010.0
20260507230047 55 13 0.0 0.0 0.00 0.00 0.00 93 1009.7
20260507224535 55 13 0.0 0.0 0.00 0.00 0.00 93 1010.1
20260507223104 55 13 0.0 0.0 0.00 0.00 0.00 93 1010.1
20260507221532 55 13 0.0 0.0 0.00 0.00 0.00 93 1010.0
20260507220029 55 13 0.0 0.0 0.00 0.00 0.00 92 1009.7
20260507214528 55 12 0.0 0.0 0.00 0.00 0.00 93 1009.7
20260507213028 56 12 0.0 0.0 0.00 0.00 0.00 94 1009.6
20260507211528 56 12 0.0 0.0 0.00 0.00 0.00 94 1009.5
20260507210035 56 12 0.0 0.0 0.00 0.00 0.00 93 1009.4
20260507204533 56 12 0.0 0.0 0.00 0.00 0.00 93 1009.5
20260507203034 56 12 0.0 0.0 0.00 0.00 0.00 94 1009.6
20260507201525 55 12 0.0 0.0 0.00 0.00 0.00 94 1009.8
20260507200046 55 12 0.0 0.0 0.00 0.00 0.00 94 1010.0
20260507194528 55 12 0.0 0.0 0.00 0.00 0.00 94 1009.8
20260507193039 55 12 0.0 0.0 0.00 0.00 0.00 93 1010.1
20260507191525 55 12 0.0 0.0 0.00 0.00 0.00 93 1010.1
20260507190033 56 12 0.0 0.0 0.00 0.00 0.00 94 1009.9
20260507184522 55 12 0.0 0.0 0.00 0.00 0.00 94 1010.0
20260507183033 55 12 0.0 0.0 0.00 0.00 0.00 94 1010.1
20260507181521 55 12 0.0 0.0 0.00 0.00 0.00 95 1010.2
20260507180020 55 13 0.0 0.0 0.00 0.00 0.00 95 1010.0
20260507174521 55 13 0.0 0.0 0.00 0.00 0.00 95 1009.9
20260507173021 55 12 0.0 0.0 0.00 0.00 0.00 95 1009.8
20260507171518 55 13 0.0 0.0 0.00 0.00 0.00 95 1009.8
20260507170018 55 13 0.0 0.0 0.00 0.00 0.00 95 1010.2
20260507164518 55 13 0.0 0.0 0.00 0.00 0.00 95 1010.3
20260507163017 55 13 0.0 0.0 0.00 0.00 0.00 95 1010.0
20260507161516 55 13 0.0 0.0 0.00 0.00 0.00 95 1010.5
20260507160016 55 13 0.0 0.0 0.00 0.00 0.00 95 1010.5
20260507154516 55 13 0.0 0.0 0.00 0.00 0.00 95 1010.6
20260507153014 55 13 0.0 0.0 0.00 0.00 0.00 95 1010.7
20260507151514 55 13 0.0 0.0 0.00 0.00 0.00 95 1010.2
20260507150013 55 14 0.0 0.0 0.00 0.00 0.00 95 1010.1
20260507144515 55 14 0.0 0.0 0.00 0.00 0.00 94 1009.9
20260507143009 56 11 0.0 0.0 0.00 0.00 0.00 94 1009.9
20260507141505 58 11 0.0 0.0 0.00 0.00 0.00 93 1010.3
20260507140001 59 9 0.0 0.0 0.00 0.00 0.00 93 1009.4
20260507134601 62 9 0.0 0.0 0.00 0.00 0.00 94 1009.0
20260507133055 64 5 0.0 0.0 0.00 0.00 0.00 96 1009.4
20260507131554 64 5 0.0 0.0 0.00 0.00 0.00 96 1009.8
20260507130107 64 5 0.0 0.0 0.00 0.00 0.00 96 1009.4
20260507124618 64 5 0.0 0.0 0.00 0.00 0.00 96 1009.2
20260507123106 64 5 0.0 0.0 0.00 0.00 0.00 96 1009.3
20260507121559 64 5 0.0 0.0 0.00 0.00 0.00 96 1009.4
20260507120052 64 5 0.0 0.0 0.00 0.00 0.00 96 1009.4
20260507114553 64 5 0.0 0.0 0.00 0.00 0.00 96 1009.3
20260507113050 64 5 0.0 0.0 0.00 0.00 0.00 96 1009.2
20260507111550 64 5 0.0 0.0 0.00 0.00 0.00 96 1009.6
20260507110050 64 5 0.0 0.0 0.00 0.00 0.00 96 1009.2
20260507104554 64 5 0.0 0.0 0.00 0.00 0.00 96 1009.2
20260507103048 63 9 0.0 0.0 0.00 0.00 0.00 96 1009.1
20260507101557 64 5 0.0 0.0 0.00 0.00 0.00 96 1008.2
20260507100056 64 5 0.0 0.0 0.00 0.00 0.00 96 1009.0
20260507094547 64 9 0.0 0.0 0.00 0.00 0.00 96 1009.0
20260507093046 64 5 0.0 0.0 0.00 0.00 0.00 96 1009.5
20260507091545 64 5 0.0 0.0 0.00 0.00 0.00 96 1009.1
20260507090048 64 9 0.0 0.0 0.00 0.00 0.00 96 1009.2
20260507084549 64 5 0.0 0.0 0.00 0.00 0.00 96 1009.1
20260507083058 64 9 0.0 0.0 0.00 0.00 0.00 95 1009.1
20260507081546 64 5 0.0 0.0 0.00 0.00 0.00 95 1009.0
20260507080040 64 5 0.0 0.0 0.00 0.00 0.00 95 1008.9
20260507074540 64 9 0.0 0.0 0.00 0.00 0.00 96 1008.7
20260507073050 64 9 0.0 0.0 0.00 0.00 0.00 95 1008.2
20260507071537 65 5 0.0 0.0 0.00 0.00 0.00 95 1008.7
20260507070041 65 9 0.0 0.0 0.00 0.00 0.00 95 1008.6
20260507064538 65 9 0.0 0.0 0.00 0.00 0.00 95 1008.8
20260507063033 65 9 0.0 0.0 0.00 0.00 0.00 95 1009.5
20260507061531 65 9 0.0 0.0 0.00 0.00 0.00 95 1009.8
20260507060030 65 9 0.0 0.0 0.00 0.00 0.00 95 1010.0
20260507054538 65 9 0.0 0.0 0.00 0.00 0.00 95 1010.3
20260507053030 65 9 0.0 0.0 0.00 0.00 0.00 95 1010.6
20260507051529 65 9 0.0 0.0 0.00 0.00 0.00 95 1010.6
20260507050035 65 9 0.0 0.0 0.00 0.00 0.00 95 1010.4
20260507044535 65 9 0.0 0.0 0.00 0.00 0.00 94 1010.5
20260507043026 65 9 0.0 0.0 0.00 0.00 0.00 94 1010.1
20260507041530 66 9 0.0 0.0 0.00 0.00 0.00 93 1010.7
20260507040019 66 5 0.0 0.0 0.00 0.00 0.00 92 1011.3
20260507034519 66 5 0.0 0.0 0.00 0.00 0.00 91 1011.4
20260507033019 67 5 0.0 0.0 0.00 0.00 0.00 90 1011.2
20260507031525 67 5 0.0 0.0 0.00 0.00 0.00 89 1010.6
20260507030018 67 5 0.0 0.0 0.00 0.00 0.00 87 1010.5
20260507024518 68 5 0.0 0.0 0.00 0.00 0.00 86 1010.7
20260507023017 68 5 0.0 0.0 0.00 0.00 0.00 85 1010.6
20260507021517 67 5 0.0 0.0 0.00 0.00 0.00 87 1010.2